996  
ASUS42 KTBW 292010  
RWRFL  
FLORIDA REGIONAL WEATHER ROUNDUP  
NATIONAL WEATHER SERVICE TAMPA BAY RUSKIN FL  
400 PM EDT TUE JUL 29 2014  
 
NOTE: "FAIR" INDICATES FEW OR NO CLOUDS BELOW 12,000 FEET WITH NO  
SIGNIFICANT WEATHER AND/OR S TO VISIBILITY
.  
 
 
FLZ001>010-012>015-112-114-115-292100-  
PANHANDLE FLORIDA  
 
CITY SKY/WX TMP DP RH WIND PRES REMARKS
 
PENSACOLA MOSUNNY 86 62 44 NW9 29.99F  
PENSACOLA NAS PTSUNNY 88 63 43 NW7 29.98F  
MILTON NAS MOSUNNY 86 63 45 N6 29.99F  
CRESTVIEW PTSUNNY 89 62 40 N8G16 30.00F  
DUKE FIELD MOSUNNY 87 67 51 N9 29.98F  
VALPARAISO MOSUNNY 86 68 54 NW7 29.97F  
MARY ESTHER MOSUNNY 88 59 37 W3 29.97F  
TRI COUNTY FAIR 89 63 41 VRB3 29.98F  
PANAMA CITY FAIR 89 63 41 NW8G20 29.96S  
TYNDALL AFB SUNNY 88 71 56 W14 29.97S  
APALACHICOLA PTSUNNY 84 72 67 VRB7 29.94F  
 
STATION/POSITION SKY/WX TEMP WIND PRES WAVE SWELL
 
AIR SEA DIR/SP/G HT/PER HT/PER  
(F) (DEG/KT/KT) (MB) (FT/S) (FT/S)  
30.1N 87.6W 82 85 270/ 6/ 10 1015.9F 1/ 3  
29.2N 88.2W 82 87 350/ 12/ 14 1016.2F  
28.8N 86.0W 83 85 330/ 12/ 14 1014.4F 4/ 6 2/ 6  
PANAMA CITY BEAC 82 81 260/ 16/ 17 1014.7S  
CAPE SAN BLAS NOT AVBL  
TOWER C 82 260/ 7/ 8 1014.7F  
28.5N 84.5W 78 85 250/ 21/ 27 1015.2R 4/ 6  
 

 
FLZ011-016>038-118-127-128-134-139-239-292100-  
NORTH FLORIDA  
 
CITY SKY/WX TMP DP RH WIND PRES REMARKS
 
MARIANNA MOSUNNY 89 62 40 N12 29.96F  
TALLAHASSEE NOT AVBL  
PERRY MOSUNNY 90 64 43 W6 29.93F  
CROSS CITY N/A 94 73 50 NW10 29.91F HX 103  
GAINESVILLE MOSUNNY 92 72 51 W9G21 29.89F HX 99  
MAYPORT NAS MOSUNNY 91 70 49 E10 29.88F HX 96  
JACKSONVILLE MOSUNNY 94 62 34 W12G22 29.88F  
JAX NAS MOSUNNY 97 64 33 NW12 29.89F HX 99  
JAX CRAIG MOSUNNY 93 65 39 VRB6 29.88F HX 95  
JAX CECIL PTSUNNY 93 66 40 W12 29.89F HX 96  
FERNANDINA BEA FAIR 88 70 55 E7 29.88F  
ST AUGUSTINE MOSUNNY 95 75 52 E9 29.89F HX 107  
 
STATION/POSITION SKY/WX TEMP WIND PRES WAVE SWELL
 
AIR SEA DIR/SP/G HT/PER HT/PER  
(F) (DEG/KT/KT) (MB) (FT/S) (FT/S)  
SHELL POINT 88 320/ 5/ 11 N/A  
KEATON BEACH 85 260/ 13/ 14 1013.7F  
CEDAR KEY 86 280/ 11/ 15 1014.1F  
FERNANDINA 88 86 140/ 6/ 10 1011.6F  
30.7N 81.3W 87 N/A 1/ 9  
MAYPORT 89 87 100/ 3/ 7 N/A  
31.4N 80.9W 83 87 50/ 6/ 8 1012.4F 2/ 9 2/ 9  
ST AUGUSTINE 83 140/ 11/ 12 1012.9F  
 

 
FLZ040-043>046-052-053-057-058-063-144-292100-  
INTERIOR CENTRAL FLORIDA  
 
CITY SKY/WX TMP DP RH WIND PRES REMARKS
 
OCALA MOSUNNY 91 72 52 W12 29.91F HX 98  
LEESBURG MOSUNNY 90 77 65 S6 29.92S THUNDER HX 103  
SANFORD MOSUNNY 88 75 65 W12 29.91F HX 97  
ORLANDO EXEC MOSUNNY 89 73 59 W14G21 29.92F HX 97  
ORLANDO INTL PTSUNNY 90 73 57 W12G23 29.93S HX 98  
KISSIMMEE MOSUNNY 91 79 66 W15G24 29.93F HX 107  
WINTER HAVEN MOSUNNY 89 74 60 W14G20 29.95F HX 98  
LAKELAND PTSUNNY 88 75 66 W8 29.94F HX 97  
BARTOW MOSUNNY 86 75 70 SW9 29.96F HX 95  
OKEECHOBEE CLOUDY 82 77 83 MISG 29.97F  
 

 
FLZ041-047-054-059-064-141-147-292100-  
EAST CENTRAL FLORIDA  
 
CITY SKY/WX TMP DP RH WIND PRES REMARKS
 
ORMOND BEACH MOSUNNY 86 77 74 SW12 29.89F HX 97  
DAYTONA BEACH MOSUNNY 85 77 77 SW10 29.91F HX 95  
DELAND MOCLDY 79 75 89 MISG 29.94F  
NEW SMYRNA BEA MOSUNNY 84 75 74 SW7 29.92F  
JFK SPACE CTR CLOUDY 85 79 81 W10 29.93F HX 98  
TITUSVILLE MOSUNNY 88 77 70 SW9 29.94F HX 100  
CAPE CANAVERAL CLOUDY 85 76 75 SW7 29.93S  
PATRICK AFB CLOUDY 86 77 73 SW17 29.95R HX 97  
MELBOURNE CLOUDY 80 76 87 SW14G20 29.96R THUNDER  
VERO BEACH LGT RAIN 76 74 93 SE3 29.96F  
FT PIERCE LGT RAIN 76 70 82 CALM 29.97F  
STUART PTSUNNY 82 66 57 NW8 29.97F  
 
STATION/POSITION SKY/WX TEMP WIND PRES WAVE SWELL
 
AIR SEA DIR/SP/G HT/PER HT/PER  
(F) (DEG/KT/KT) (MB) (FT/S) (FT/S)  
28.5N 80.2W 82 83 270/ 10/ 12 1014.1F  
28.9N 78.5W 85 84 250/ 14/ 16 1013.5F 4/ 6 2/ 9  
TRIDENT PIER 85 85 230/ 9/ 11 1013.3S  
28.4N 80.5W 83 N/A 1/ 9  
27.6N 80.2W 82 N/A 1/ 3  
 

 
FLZ050-056-061-142-242-148-248-149-249-151-251-155-255-  
160-260-292100-  
WEST CENTRAL FLORIDA  
 
CITY SKY/WX TMP DP RH WIND PRES REMARKS
 
CRYSTAL RIVER FAIR 88 75 66 W13G18 29.93F HX 97  
INVERNESS FAIR 90 70 51 W9 29.92F HX 95  
BROOKSVILLE MOSUNNY 87 77 72 W17G28 29.93F HX 99  
ZEPHYRHILLS MOCLDY 86 75 70 SW12 29.94F HX 95  
CLEARWATER PTSUNNY 87 75 67 W17G23 29.95F HX 96  
TAMPA INTL TSTM 86 75 69 W14 29.95F HX 95  
TAMPA EXEC HVY RAIN 84 72 65 NW10G23 29.97R  
PLANT CITY PTSUNNY 91 77 62 W14 29.96F HX 105  
MACDILL AFB PTSUNNY 90 77 64 W13G21 29.95F HX 103  
ST PETERSBURG PTSUNNY 88 75 65 W16 29.93F HX 97  
SARASOTA CLOUDY 88 77 69 NW16 29.95F HX 100  
VENICE LGT RAIN 82 72 69 W16G28 29.98S  
 
STATION/POSITION SKY/WX TEMP WIND PRES WAVE SWELL
 
AIR SEA DIR/SP/G HT/PER HT/PER  
(F) (DEG/KT/KT) (MB) (FT/S) (FT/S)  
CEDAR KEY 86 280/ 11/ 15 1014.1F  
28.5N 84.5W 78 85 250/ 21/ 27 1015.2R 4/ 6  
27.3N 84.3W 86 N/A 5/ 6  
CLEARWATER BEACH 86 87 280/ 17/ 19 1014.0S  
MIDDLE TAMPA BAY 85 290/ 16/ 18 1014.6F  
VENICE 82 89 280/ 16/ 18 1014.3F  
 

 
FLZ066-069-070-075>078-162-262-165-265-292100-  
SOUTHWEST FLORIDA AND KEYS  
 
CITY SKY/WX TMP DP RH WIND PRES REMARKS
 
PUNTA GORDA CLOUDY 91 75 59 W14G21 29.98F HX 101  
FT MYERS CLOUDY 88 77 69 SW12 29.97S HX 100  
SOUTHWEST INTL TSTM 81 75 82 SW7 29.99S  
NAPLES N/A 91 79 67 W16 29.98S HX 107  
MARATHON MOSUNNY 94 76 55 W8 30.00F HX 106  
KEY WEST NAS PTSUNNY 92 71 50 NW9 30.02S HX 98  
KEY WEST INTL MOSUNNY 91 76 61 NW10 30.02F HX 103  
 
STATION/POSITION SKY/WX TEMP WIND PRES WAVE SWELL
 
AIR SEA DIR/SP/G HT/PER HT/PER  
(F) (DEG/KT/KT) (MB) (FT/S) (FT/S)  
VENICE 82 89 280/ 16/ 18 1014.3F  
NAPLES 88 93 1015.9F  
DRY TORTUGAS 86 300/ 10/ 10 1016.7F  
NW FL BAY 88 270/ 10/ 12 1016.7F  
SAND KEY 86 260/ 7/ 9 1016.6F  
SOMBRERO KEY 86 250/ 12/ 13 1016.6F  
LONG KEY 87 93 290/ 7/ 8 1016.6F  
MOLASSES REEF 86 87 220/ 12/ 13 1015.6F  
 

 
FLZ067-068-071>074-168-172>174-292100-  
SOUTHEAST FLORIDA  
 
CITY SKY/WX TMP DP RH WIND PRES REMARKS
 
W PALM BEACH CLOUDY 83 73 72 NE5 29.96R THUNDER  
FT LAUDER-EXEC PTSUNNY 93 72 50 SW10 29.95F HX 101  
FT LAUDERDALE PTSUNNY 93 71 48 SW16 29.95F HX 100  
POMPANO BEACH PTSUNNY N/A N/A N/A MISG 29.95F  
PEMBROKE PINES MOSUNNY 92 72 51 SW14 29.97F HX 99  
OPA LOCKA MOSUNNY 87 75 67 SW9 29.97F HX 96  
MIAMI PTSUNNY 86 74 67 NW3 29.98F  
WEST KENDALL MOSUNNY 92 72 51 W12 29.97F HX 99  
HOMESTEAD MOSUNNY 91 75 60 SW10 29.97F HX 102  
 
STATION/POSITION SKY/WX TEMP WIND PRES WAVE SWELL
 
AIR SEA DIR/SP/G HT/PER HT/PER  
(F) (DEG/KT/KT) (MB) (FT/S) (FT/S)  
PORT EVERGLADES 87 160/ 13/ 17 1014.6  
VIRGINIA KEY 86 89 160/ 12/ 16 N/A  
LAKE WORTH 83 83 1014.6F  
FOWEY ROCKS 87 87 170/ 15/ 15 1015.5F  
SETTLEMENT POINT 85 200/ 11/ 13 1015.5F  
 

 
 
CLICK HERE TO GO TO PREVIOUS BULLETINS.

The Nexlab FL Page Main Text Page